Total_Precipitation_Accumulation
1.91 1.95 1.89 1.89 1.75 1.95 2.28 2.38 2.27 2.49 2.53 2.31 2.07 1.86 1.79 1.64 1.50 1.50 1.57 1.48 1.38 1.46 1.73 1.84 1.69 1.58 1.47 1.30 1.15 1.08 1.03 0.96 0.91 0.77 0.64 0.62 0.72 0.70 0.59 0.51 0.46 0.40 0.38
2.36 2.39 2.24 2.17 2.03 2.04 2.24 2.37 2.40 2.88 2.76 2.60 2.14 1.92 1.86 1.84 1.70 1.66 1.68 1.76 1.48 1.35 1.47 1.77 1.92 1.88 1.79 1.59 1.40 1.26 1.13 1.04 0.94 0.73 0.60 0.56 0.64 0.73 0.69 0.62 0.52 0.42 0.32
2.47 2.52 2.50 2.35 2.27 2.24 2.38 2.41 2.60 2.84 2.57 2.45 2.17 2.05 1.94 1.83 1.67 1.66 1.83 2.00 1.77 1.51 1.36 1.47 1.77 1.93 1.97 1.98 1.86 1.59 1.31 1.12 0.99 0.78 0.62 0.57 0.61 0.69 0.69 0.69 0.63 0.48 0.33
2.48 2.56 2.38 2.26 2.46 2.55 2.62 2.74 2.81 2.85 2.71 2.63 2.44 2.14 1.96 1.89 1.50 1.47 1.54 1.61 1.75 1.53 1.58 1.69 1.83 1.90 2.08 2.20 2.22 2.17 1.87 1.45 1.20 0.99 0.80 0.69 0.71 0.72 0.67 0.65 0.63 0.50 0.36
2.30 2.45 2.31 2.37 2.54 2.63 2.66 2.43 2.79 2.78 2.79 2.72 2.29 2.03 1.77 1.62 1.49 1.27 1.25 1.20 1.33 1.37 1.44 1.55 1.69 1.69 1.99 2.35 2.52 2.62 2.49 2.08 1.61 1.34 1.21 1.02 0.91 0.81 0.71 0.67 0.63 0.55 0.43
2.37 2.52 2.37 2.45 2.56 2.65 2.64 2.66 2.83 2.80 2.65 2.65 2.13 1.86 1.61 1.30 1.32 1.25 1.06 1.08 1.14 1.05 1.13 1.33 1.61 1.38 1.72 2.07 2.26 2.58 2.81 2.65 2.20 1.83 1.67 1.53 1.38 1.13 0.88 0.79 0.75 0.69 0.56
2.46 2.65 2.53 2.66 2.63 2.49 2.46 2.62 2.80 2.63 2.41 2.54 2.43 1.86 1.40 1.15 1.14 1.09 1.08 1.15 1.07 1.05 1.19 1.47 1.59 1.50 1.40 1.48 1.54 1.86 2.42 2.80 2.72 2.33 2.00 1.81 1.77 1.64 1.23 1.07 1.00 0.90 0.77
2.38 2.33 2.42 2.32 2.34 2.44 2.44 2.49 2.67 2.49 2.12 2.26 2.32 2.14 1.58 1.33 1.08 0.89 1.05 1.07 1.05 1.16 1.20 1.33 1.60 1.77 1.63 1.72 1.39 1.35 1.91 2.55 2.86 2.82 2.45 2.15 2.04 1.95 1.63 1.48 1.28 1.06 0.92
2.03 2.06 2.06 2.14 2.38 2.41 2.38 2.43 2.45 2.30 2.00 1.97 2.09 2.22 1.76 1.38 1.10 0.81 0.81 0.96 1.14 1.30 1.27 1.41 1.52 1.68 1.76 1.94 1.93 1.65 1.58 1.76 2.30 2.89 2.87 2.54 2.21 1.96 1.99 2.02 1.81 1.39 1.09
1.90 1.85 1.85 1.91 1.97 1.98 2.05 1.89 2.00 2.13 2.14 1.94 1.98 1.96 1.81 1.64 1.48 1.11 0.89 0.90 1.07 1.18 1.26 1.24 1.25 1.38 1.66 2.02 2.12 1.82 1.56 1.40 1.59 2.32 2.84 2.86 2.52 2.19 2.15 2.27 2.43 2.09 1.52
1.81 1.75 1.67 1.65 1.57 1.58 1.70 1.70 1.81 1.85 1.85 1.82 1.84 1.88 1.84 1.79 1.70 1.56 1.27 1.16 1.10 0.96 1.02 1.12 1.17 1.24 1.50 1.76 1.91 1.78 1.73 1.53 1.48 1.66 2.06 2.42 2.48 2.37 2.27 2.39 2.75 2.82 2.43
1.66 1.56 1.52 1.53 1.46 1.47 1.55 1.58 1.66 1.62 1.66 1.72 1.73 1.78 1.83 1.76 1.77 1.78 1.49 1.38 1.29 1.06 1.04 1.01 1.04 1.10 1.31 1.49 1.42 1.52 1.52 1.36 1.28 1.33 1.48 1.78 1.95 2.06 2.14 2.35 2.73 3.07 3.09
1.30 1.25 1.22 1.32 1.33 1.40 1.42 1.43 1.48 1.53 1.62 1.69 1.65 1.70 1.71 1.64 1.63 1.69 1.65 1.43 1.32 1.16 1.18 1.11 1.00 1.04 1.05 1.33 1.31 1.18 1.03 0.95 0.92 0.95 0.97 1.11 1.34 1.49 1.67 1.91 2.24 2.59 2.86
1.02 1.10 1.23 1.29 1.33 1.37 1.32 1.37 1.33 1.34 1.47 1.57 1.58 1.78 1.68 1.52 1.54 1.61 1.71 1.70 1.52 1.34 1.35 1.20 1.05 0.99 1.02 1.14 1.08 0.92 0.85 0.76 0.73 0.71 0.69 0.71 0.79 0.92 1.07 1.29 1.56 1.79 1.99
1.07 1.10 1.18 1.27 1.32 1.41 1.41 1.39 1.33 1.38 1.54 1.57 1.66 1.77 1.67 1.60 1.59 1.58 1.70 1.83 1.79 1.59 1.38 1.26 1.12 0.99 0.96 0.96 0.92 0.91 0.89 0.78 0.67 0.62 0.57 0.56 0.58 0.63 0.72 0.87 1.05 1.21 1.32
1.12 1.09 1.11 1.16 1.13 1.15 1.23 1.26 1.27 1.35 1.52 1.54 1.52 1.59 1.61 1.62 1.73 1.66 1.70 1.81 1.88 1.79 1.46 1.33 1.22 1.00 1.05 0.83 0.82 0.85 0.87 0.77 0.60 0.53 0.51 0.51 0.53 0.57 0.59 0.65 0.75 0.89 1.04
1.08 1.04 1.03 1.00 0.94 0.91 0.95 1.05 1.13 1.27 1.31 1.31 1.24 1.28 1.30 1.38 1.50 1.48 1.53 1.61 1.73 1.79 1.52 1.41 1.52 1.39 1.35 1.13 0.97 0.90 0.76 0.72 0.64 0.54 0.48 0.46 0.47 0.51 0.57 0.58 0.58 0.64 0.76
0.91 0.92 0.92 0.88 0.83 0.85 0.92 0.97 1.05 1.17 1.23 1.21 1.19 1.21 1.16 1.19 1.30 1.31 1.38 1.45 1.60 1.79 1.64 1.55 1.66 1.70 1.61 1.41 1.28 1.10 0.83 0.68 0.71 0.66 0.51 0.44 0.43 0.46 0.53 0.56 0.53 0.53 0.58
0.81 0.83 0.85 0.85 0.83 0.89 1.02 1.13 1.21 1.19 1.09 1.05 1.02 1.01 0.99 1.02 1.07 1.12 1.23 1.28 1.38 1.66 1.73 1.60 1.63 1.88 1.84 1.66 1.63 1.36 1.15 1.04 0.77 0.72 0.59 0.48 0.46 0.46 0.50 0.58 0.59 0.55 0.53
0.82 0.87 0.90 0.94 0.99 1.02 1.02 1.07 1.11 1.15 1.11 0.97 0.83 0.74 0.70 0.78 0.87 0.97 1.07 1.17 1.27 1.43 1.60 1.65 1.63 1.84 1.92 1.81 1.92 1.71 1.46 1.30 1.05 0.83 0.75 0.57 0.50 0.51 0.51 0.54 0.58 0.62 0.63
0.77 0.90 1.00 1.04 1.11 1.04 0.91 0.94 1.00 0.94 0.97 0.93 0.81 0.65 0.55 0.57 0.66 0.79 0.81 0.95 1.12 1.26 1.36 1.51 1.60 1.74 1.96 1.99 1.85 1.81 1.64 1.48 1.36 1.23 1.19 0.86 0.59 0.52 0.51 0.53 0.58 0.66 0.73
0.77 0.86 0.87 0.95 1.00 0.84 0.76 0.74 0.78 0.81 0.84 0.83 0.80 0.73 0.63 0.57 0.55 0.59 0.62 0.69 0.78 0.90 1.07 1.28 1.38 1.51 1.75 1.95 1.94 1.96 1.86 1.64 1.49 1.39 1.46 1.46 1.12 0.88 0.71 0.52 0.52 0.61 0.74
0.80 0.83 0.82 0.84 0.87 0.95 0.83 0.70 0.66 0.68 0.75 0.77 0.75 0.72 0.58 0.48 0.52 0.53 0.55 0.56 0.60 0.60 0.67 0.89 1.02 1.08 1.27 1.58 1.90 2.00 2.07 1.92 1.71 1.67 1.71 1.78 1.84 1.59 1.10 0.78 0.69 0.60 0.67
0.92 0.92 0.85 0.86 0.87 0.87 0.85 0.74 0.69 0.63 0.66 0.72 0.75 0.74 0.71 0.66 0.61 0.65 0.67 0.64 0.55 0.53 0.54 0.56 0.63 0.82 0.99 1.24 1.62 1.81 2.06 2.22 2.09 1.98 1.98 2.04 2.08 2.28 1.82 1.26 1.04 0.82 0.76
1.00 1.02 0.98 0.97 0.96 0.94 0.87 0.74 0.71 0.67 0.70 0.73 0.78 0.77 0.76 0.72 0.70 0.67 0.70 0.72 0.64 0.62 0.60 0.59 0.59 0.71 0.89 1.02 1.29 1.63 1.87 2.00 2.05 2.12 2.15 2.21 2.16 2.30 2.60 2.17 1.48 1.10 0.88
1.15 1.16 1.15 1.13 1.13 1.11 1.04 0.89 0.82 0.76 0.80 0.83 0.92 0.91 0.79 0.69 0.72 0.68 0.64 0.70 0.70 0.72 0.76 0.72 0.70 0.72 0.78 0.90 1.11 1.36 1.56 1.75 1.78 1.89 1.81 1.78 1.80 1.94 2.37 2.62 2.27 1.65 1.20